Theta_e
285 284 285 285 286 286 285 286 286 286 285 285 285 284 285 284 285 285 284 284 284 285 284 285 285 285 286 286 286 286 285 284 285 285 286 287 288 288 289 289 289 290 290 291 291 292 292 294 294 295 296 296 296 296 296 298 299 300 301 303 304 306
283 284 284 284 284 285 285 285 285 285 285 285 285 285 285 284 284 284 283 284 283 283 284 284 285 285 285 285 285 284 284 284 284 284 285 286 286 287 287 287 288 288 289 290 291 291 291 291 292 293 294 295 295 295 295 296 297 298 298 299 301 303
283 283 284 284 284 284 284 284 284 284 284 284 284 283 283 283 283 283 283 283 283 283 282 283 283 284 284 284 284 284 283 283 283 283 284 285 285 286 286 286 286 287 288 289 290 290 290 290 290 291 292 292 292 293 294 296 297 296 296 296 296 298
281 282 282 283 283 283 283 284 283 283 283 283 283 283 283 282 282 283 282 282 282 282 282 282 283 283 283 283 283 283 282 282 282 282 283 283 284 285 285 285 286 286 287 288 288 289 289 289 289 290 290 290 290 291 293 295 294 293 292 292 293 295
280 281 282 282 283 282 282 282 282 283 283 282 282 282 282 282 282 282 282 281 281 281 281 281 281 282 281 282 282 282 281 281 281 282 282 282 283 284 284 284 285 285 286 287 287 288 288 288 288 289 289 289 289 289 291 292 290 289 288 289 290 292
280 282 282 282 282 281 281 281 282 282 282 282 282 282 282 282 282 282 281 281 280 281 280 280 281 280 280 280 281 280 280 280 280 281 281 281 282 282 283 283 284 284 285 285 286 286 287 287 288 288 288 288 288 289 289 288 287 287 288 288 288 289
280 281 281 281 280 280 281 281 281 281 282 282 282 281 282 281 281 281 280 279 279 279 279 279 280 279 279 280 280 279 279 279 279 279 280 280 280 281 281 282 283 283 284 285 285 285 285 286 287 287 287 287 288 288 288 287 286 287 287 287 288 289
280 279 279 280 280 280 280 280 281 281 281 281 282 281 280 280 280 280 279 279 278 279 278 279 278 278 279 279 278 278 278 278 278 278 278 279 279 279 280 281 281 283 283 284 284 284 285 285 286 286 286 287 287 287 287 286 286 286 286 286 287 287
278 278 279 279 279 279 279 279 280 280 280 280 280 280 280 280 279 279 278 278 278 278 278 278 278 278 278 278 277 277 277 277 277 277 277 278 278 278 279 280 281 282 282 283 283 283 284 284 284 285 285 286 286 286 286 286 286 286 286 286 286 286
278 278 278 278 279 279 279 279 280 280 280 279 280 279 279 280 278 277 277 277 277 277 277 277 277 278 278 277 277 276 276 276 276 276 276 277 277 277 278 279 280 281 282 282 282 283 283 283 283 284 285 285 285 285 286 286 285 285 285 285 286 286
277 277 277 278 278 278 278 279 279 279 279 279 279 278 278 278 277 277 277 277 276 277 277 277 277 277 277 276 276 275 275 275 275 275 276 276 276 277 277 278 279 280 280 281 281 282 282 283 283 284 284 284 284 285 285 285 285 285 285 285 285 285
276 277 277 277 277 277 278 279 279 279 278 278 278 277 277 277 276 276 276 276 276 276 277 277 276 276 276 275 275 274 274 274 274 275 275 275 275 276 277 277 278 278 279 279 280 280 282 282 283 284 285 285 284 284 285 285 285 285 284 284 284 285
276 276 276 276 277 277 278 278 278 278 277 277 277 277 277 276 276 276 276 275 276 276 276 276 275 275 274 274 274 274 274 274 274 274 274 274 275 275 276 276 276 277 278 278 279 279 280 281 282 283 285 286 286 285 284 284 284 285 284 284 284 283
276 276 276 276 277 277 277 277 277 276 276 276 276 276 276 276 275 275 275 275 275 275 275 275 274 274 274 274 273 273 273 273 273 273 273 274 274 274 275 275 275 276 277 277 278 278 278 279 282 283 284 285 285 285 284 284 284 284 284 284 283 284
275 275 275 276 276 277 277 276 276 275 276 275 275 275 275 275 275 275 275 275 275 274 274 274 273 273 273 273 272 272 272 272 273 273 273 273 273 274 274 274 275 275 276 276 276 276 277 277 280 282 283 284 285 285 284 283 284 284 283 284 283 283
275 276 276 276 276 276 276 276 275 275 275 275 275 274 274 274 274 274 274 274 274 274 273 273 273 272 272 272 272 272 272 272 272 272 272 273 273 273 273 273 274 274 275 275 275 275 276 276 279 282 283 283 284 284 284 283 283 284 284 283 283 283
275 275 275 275 275 275 275 274 274 274 274 274 274 274 274 274 274 274 274 273 273 273 272 272 272 272 271 271 271 271 271 271 271 271 272 272 272 272 272 272 273 273 274 274 275 275 275 276 279 281 282 282 283 284 285 283 283 283 283 283 283 283
275 274 274 276 275 274 274 273 274 273 273 274 273 273 273 273 273 273 273 272 272 272 272 272 271 271 270 270 270 270 270 270 270 270 271 271 271 272 272 272 273 273 273 274 274 274 274 275 279 280 281 282 283 284 282 280 280 280 280 280 281 281
275 275 275 274 274 273 274 274 273 273 273 272 273 273 273 273 272 272 272 272 271 271 271 271 271 270 269 269 269 269 269 269 269 270 271 270 270 270 271 271 272 273 273 273 274 273 273 274 277 279 280 281 283 282 280 279 279 278 278 278 279 279
275 274 274 273 273 273 274 273 273 272 272 272 272 272 272 272 272 272 271 271 271 271 271 271 270 269 269 269 268 268 269 269 269 269 270 269 269 270 270 271 271 272 273 273 273 273 273 273 276 278 280 281 282 281 278 278 278 277 277 277 278 278
274 274 274 273 272 273 273 273 272 271 271 271 271 271 271 271 271 271 270 270 270 270 270 270 269 269 268 268 268 268 268 268 268 269 269 269 269 269 270 271 271 271 272 272 272 273 273 273 275 278 279 280 281 280 278 277 276 275 275 276 276 277
273 273 273 272 272 273 273 272 272 270 270 270 270 270 270 270 271 271 271 270 270 270 270 269 268 268 268 267 267 268 268 268 268 268 268 268 269 269 269 270 270 270 271 272 272 272 273 273 273 275 278 279 280 280 277 276 275 274 274 275 275 275
273 272 272 272 273 273 273 272 271 270 270 270 269 269 270 270 270 270 270 270 269 269 268 268 268 267 267 267 267 267 267 267 267 267 267 267 268 268 268 269 269 270 270 271 272 272 272 273 273 274 277 278 279 279 278 275 274 274 274 274 274 274
272 272 272 272 272 272 272 271 270 270 269 269 269 269 270 270 269 270 269 269 268 268 267 267 267 266 266 266 266 266 265 266 267 267 267 267 267 267 267 268 268 269 269 270 271 271 271 272 273 273 275 277 278 278 278 275 274 275 274 273 273 273
271 271 271 272 272 272 272 270 269 269 269 268 269 269 269 269 269 269 268 268 267 266 266 266 265 265 265 265 265 265 265 266 266 266 267 266 266 266 267 267 268 268 268 269 269 270 271 271 272 274 274 276 277 277 277 277 276 277 275 273 272 272
271 271 271 271 271 271 271 270 268 268 268 268 269 268 268 267 267 267 267 266 266 265 265 264 264 264 264 264 264 264 264 265 265 266 266 266 266 266 266 266 267 267 267 267 268 269 270 271 271 273 274 274 275 276 276 276 277 277 274 274 272 272
270 269 269 269 269 269 269 269 268 265 266 268 268 266 266 266 266 266 265 265 265 264 264 264 263 263 263 263 264 263 263 263 264 264 265 265 265 265 265 265 266 266 266 266 267 267 268 269 271 271 273 274 274 275 275 276 276 276 276 273 272 273
269 268 268 268 268 268 268 268 267 265 267 267 267 266 266 265 264 263 263 263 263 263 263 262 261 262 262 262 263 263 263 263 263 263 264 264 264 264 264 264 265 265 266 266 266 267 267 269 269 270 271 271 271 272 273 275 275 274 275 274 273 274
267 267 267 267 267 267 267 266 266 267 267 266 266 265 263 262 263 262 262 261 262 262 262 261 261 261 262 262 262 263 263 263 263 263 263 263 263 263 263 264 264 264 265 265 266 266 267 268 269 269 270 269 269 270 272 272 272 273 273 272 272 273
265 266 265 266 267 266 266 265 265 266 264 263 264 262 261 261 261 261 260 260 261 262 261 261 262 262 261 261 261 261 261 262 262 262 262 262 262 262 263 263 264 264 265 266 266 267 267 267 268 268 268 269 270 271 271 271 271 271 271 271 271 272
264 263 263 265 266 265 264 263 264 263 263 263 262 261 259 260 260 260 259 260 260 260 261 260 260 260 260 260 260 261 261 261 261 262 262 264 265 265 264 264 265 266 267 267 267 267 266 266 267 268 271 271 273 271 270 270 270 271 271 272 274 272
263 263 264 265 265 264 263 263 264 263 263 261 261 260 259 257 258 258 258 259 259 259 259 259 259 259 260 259 259 260 260 264 265 265 264 263 266 268 270 270 267 268 268 268 268 269 267 267 268 273 274 273 273 274 274 273 274 274 273 274 274 271
263 262 262 263 263 263 263 263 263 262 261 261 261 260 258 256 257 258 258 258 258 258 259 258 258 258 259 259 259 259 259 259 261 266 268 268 266 266 269 270 271 272 272 269 267 269 272 272 273 273 273 273 273 273 273 273 273 274 274 273 270 265
261 262 262 262 262 262 262 262 262 261 260 260 259 258 257 256 257 257 257 258 258 258 258 258 258 259 258 258 259 259 259 258 258 259 263 265 265 267 268 269 270 271 271 271 270 268 267 270 271 272 272 272 272 272 272 272 273 273 272 272 270 262
262 261 261 261 261 261 261 261 261 260 259 259 258 257 255 255 256 257 257 257 257 257 258 258 257 258 258 258 258 258 258 257 257 257 257 260 263 265 267 267 268 269 269 270 270 270 270 270 270 271 271 271 271 272 271 272 272 271 271 270 263 259
261 261 261 260 260 261 260 260 261 259 259 257 257 256 255 255 255 256 257 256 257 256 257 257 257 257 258 258 258 258 258 258 258 257 257 257 257 259 261 264 266 266 267 267 268 268 269 269 270 270 270 271 271 271 271 271 267 268 268 266 260 258
260 259 261 261 261 260 259 259 259 258 257 256 257 255 254 254 256 256 257 258 258 257 257 257 258 258 258 258 257 257 257 257 258 258 258 257 256 256 257 257 259 262 263 262 263 266 268 268 269 269 269 269 270 270 270 269 261 259 259 259 258 258
259 259 259 259 259 259 258 259 259 258 256 255 253 252 254 254 255 255 256 256 257 257 257 257 257 257 257 256 256 257 257 258 258 257 257 257 257 257 256 257 257 258 260 262 262 263 266 267 268 268 268 268 268 268 268 260 258 257 257 258 258 257
Wind_Speed
6 7 6 7 6 7 7 7 7 8 8 10 9 12 10 12 10 10 11 12 10 10 12 13 12 11 10 11 11 11 12 13 12 13 12 12 12 11 11 12 12 11 11 12 13 12 13 12 12 13 12 12 11 12 12 13 13 13 13 12 12 12
5 5 5 5 6 6 6 5 6 6 7 8 10 9 10 11 12 11 12 12 11 11 12 11 11 11 11 11 12 11 11 13 14 15 15 14 12 11 12 12 12 12 12 11 11 12 12 13 13 13 12 11 11 12 12 12 13 13 13 13 13 12
5 5 5 4 4 4 5 5 6 5 5 5 7 9 9 8 9 8 9 9 10 10 11 11 10 11 10 11 12 11 12 13 13 13 13 12 13 13 13 13 14 13 12 12 11 11 12 13 13 11 11 11 13 12 13 12 12 12 12 13 15 14
5 4 5 4 4 6 6 7 5 4 4 4 6 6 7 8 10 8 10 10 10 11 11 11 9 9 10 9 9 9 11 13 13 13 12 13 13 13 13 14 13 13 14 12 12 12 12 11 11 12 11 12 13 13 10 10 12 13 14 14 14 14
4 5 5 5 5 5 5 5 6 5 5 4 5 6 7 7 9 7 9 10 10 11 10 10 10 10 11 10 8 9 12 12 12 12 12 13 13 12 12 13 14 14 13 13 12 12 12 12 11 10 11 11 12 13 12 11 12 13 14 15 14 15
4 4 5 5 5 5 5 5 5 5 4 4 5 6 6 6 7 8 9 10 11 10 10 10 10 11 11 10 8 10 13 13 12 11 12 12 11 13 12 13 13 13 13 13 13 12 12 12 11 11 10 11 12 13 13 12 12 12 13 13 14 14
4 5 5 5 4 4 5 4 5 5 4 5 5 5 5 6 6 8 9 10 11 10 10 10 9 10 11 10 9 12 13 13 12 11 13 13 13 13 13 12 11 12 12 12 13 14 13 13 12 12 11 10 10 10 13 13 13 12 13 13 13 14
4 4 4 4 4 5 5 4 5 4 4 6 5 6 5 7 6 8 10 10 10 10 10 9 9 10 10 9 10 12 13 12 12 13 12 12 13 14 13 13 12 11 12 11 11 12 13 13 12 12 12 11 10 10 12 13 13 13 13 14 13 13
4 4 4 4 4 5 6 5 5 4 4 6 6 5 5 7 7 9 10 10 9 9 9 9 9 9 9 9 11 11 11 12 12 12 13 12 13 14 13 13 13 12 11 12 12 12 12 12 11 11 12 11 11 12 13 13 14 14 13 13 14 13
3 4 4 4 5 5 6 5 5 5 6 8 7 5 7 7 8 10 10 10 10 9 9 9 8 8 10 10 11 11 11 12 12 12 11 12 13 13 13 14 14 13 11 11 12 12 12 12 11 11 10 10 11 12 12 13 14 15 14 14 13 13
3 4 4 4 5 7 7 6 5 5 5 6 5 6 8 8 9 10 10 9 10 9 9 9 8 9 10 11 11 11 12 12 12 12 12 11 12 11 12 13 13 13 13 12 11 12 11 11 10 9 10 12 14 13 14 15 14 14 13 13 12 12
4 4 5 5 6 7 6 6 7 7 7 7 5 7 7 8 9 9 9 9 9 9 9 9 9 10 10 10 11 11 12 12 13 12 13 13 12 12 12 12 12 13 13 13 12 11 10 10 9 12 24 22 16 15 13 13 13 13 12 12 11 10
4 4 5 6 6 6 5 6 6 6 6 5 7 8 7 9 9 8 8 9 8 8 9 9 9 9 10 10 10 11 12 13 12 12 13 13 13 14 13 12 13 12 12 12 12 12 11 10 11 22 23 23 26 18 14 14 15 13 13 12 11 11
4 5 5 6 5 5 5 6 5 5 5 5 7 7 8 8 8 8 8 8 7 8 9 9 10 10 10 10 11 12 12 11 12 12 12 13 14 13 13 14 13 13 13 12 12 12 12 11 17 25 24 24 25 22 17 14 13 12 12 12 11 10
4 4 4 4 4 4 5 5 5 4 4 6 6 7 8 8 8 8 7 7 7 8 9 9 10 10 10 10 11 11 11 12 12 12 12 13 13 12 13 13 14 14 13 12 13 13 13 11 19 23 25 25 26 26 22 13 13 14 13 12 11 11
3 3 3 4 4 4 5 4 4 4 5 6 7 7 7 7 7 6 6 6 7 7 8 9 10 10 10 10 11 11 11 11 11 12 11 11 11 12 13 14 14 13 13 13 13 14 13 13 17 25 25 25 26 26 22 14 14 13 13 12 12 10
3 3 3 3 4 4 4 4 4 5 6 6 7 7 6 6 6 5 5 5 6 7 8 9 9 10 10 11 12 11 11 12 12 12 11 10 11 12 13 13 13 12 12 13 13 13 14 13 23 25 26 26 26 27 22 12 11 11 11 11 12 11
2 2 2 3 4 3 3 3 3 4 5 5 6 7 6 7 6 6 5 5 6 7 8 9 9 9 10 12 12 12 12 12 12 12 12 11 11 11 11 11 12 12 13 13 13 14 14 14 24 25 26 27 25 26 11 10 10 10 11 11 11 10
1 1 2 3 3 3 2 3 3 3 4 5 6 6 7 7 6 6 5 5 6 7 8 8 8 9 11 11 12 12 12 13 14 12 10 12 12 11 11 12 13 13 13 15 14 15 15 15 20 24 25 25 26 18 8 11 10 11 10 9 10 9
1 2 3 4 3 2 1 2 3 3 4 5 5 6 6 6 6 6 6 6 7 8 8 8 8 9 11 10 11 12 12 11 10 11 10 11 13 14 13 12 13 13 12 13 15 14 15 16 19 24 24 25 24 18 12 10 10 11 12 12 12 11
0 3 3 3 3 2 1 2 2 2 4 5 6 6 6 6 6 6 6 7 7 7 8 8 9 9 10 11 12 11 11 11 12 11 11 10 11 13 12 12 12 14 13 13 14 18 16 14 17 22 22 25 23 18 12 11 11 13 13 14 14 13
1 2 1 3 3 2 1 1 1 2 4 5 5 6 6 7 7 7 6 6 7 7 7 8 9 10 10 12 12 11 10 11 11 11 11 12 11 12 12 12 12 15 14 13 13 13 13 14 14 17 24 23 23 23 14 11 12 13 15 14 14 14
2 2 3 3 3 2 2 1 1 2 3 5 6 6 6 7 7 7 7 7 7 7 8 9 9 11 12 11 11 11 11 10 11 12 12 13 12 12 13 14 13 13 14 12 11 12 12 11 14 16 22 22 21 22 19 11 13 14 14 14 14 14
2 2 3 3 2 3 2 1 2 3 4 5 6 6 6 6 7 8 8 8 7 8 9 9 9 10 10 10 10 11 12 11 11 11 12 12 12 14 14 14 13 12 13 12 12 12 12 13 17 15 19 21 21 21 23 14 13 15 14 14 14 15
2 2 3 2 2 2 2 1 3 4 4 5 6 5 5 5 7 8 8 7 8 8 8 9 9 9 9 9 10 10 12 12 11 11 11 12 13 13 14 13 13 12 13 12 11 10 11 12 12 18 16 19 21 22 23 24 18 22 15 13 14 15
2 2 2 3 3 3 2 2 3 4 5 7 4 3 4 5 6 6 7 7 8 8 8 8 8 8 9 10 10 10 11 11 11 11 10 11 11 11 12 12 11 12 12 13 12 11 11 11 12 15 18 17 22 22 24 24 24 23 15 14 13 14
3 1 3 3 4 3 2 2 4 4 6 5 2 3 4 6 6 7 7 8 9 10 9 8 7 9 9 9 8 9 10 11 10 10 10 10 11 11 12 12 12 12 12 12 13 13 12 12 12 12 14 20 21 24 24 24 25 23 23 15 12 14
1 2 4 4 3 3 3 3 3 5 6 3 2 3 4 5 6 6 6 7 9 9 8 8 9 8 8 8 7 8 8 9 10 9 9 8 8 9 10 12 12 12 12 12 12 13 13 13 13 12 12 12 15 18 22 24 23 23 23 22 17 22
2 3 4 5 3 3 3 3 3 4 3 3 2 3 4 4 5 6 7 8 8 8 7 8 8 8 8 7 7 7 7 8 8 8 8 8 9 9 10 11 11 11 11 12 13 14 14 14 12 11 10 9 11 10 11 13 12 17 18 13 10 14
3 4 4 5 4 3 3 4 4 4 4 2 1 2 3 4 5 6 7 8 9 8 7 7 10 11 8 8 7 8 8 7 7 8 9 9 9 10 11 11 11 11 12 12 11 12 12 12 10 8 9 10 10 11 10 10 10 10 9 10 10 12
3 4 4 6 4 3 4 4 4 4 4 2 1 2 4 4 4 6 8 8 8 8 6 7 7 8 8 9 8 7 7 8 9 9 10 9 8 9 11 12 13 12 11 11 10 10 12 13 10 8 14 17 21 18 15 12 11 11 10 14 22 16
4 5 6 5 3 3 4 5 5 4 2 2 2 2 2 3 4 6 8 7 7 7 7 6 7 7 8 8 9 10 9 10 15 13 11 11 14 21 23 20 15 14 13 13 11 9 12 14 13 23 27 25 25 25 25 24 24 23 19 21 26 14
4 5 5 4 4 4 5 5 5 4 4 3 3 1 1 2 5 6 7 7 6 7 7 7 8 7 7 8 9 9 10 11 9 13 19 19 19 20 22 22 25 26 24 17 14 15 23 25 26 26 25 26 25 25 25 25 24 24 22 22 16 7
4 4 5 4 4 5 5 6 5 4 4 3 1 0 1 3 4 7 7 7 6 7 7 7 8 8 8 8 8 8 9 10 12 11 10 15 18 19 21 22 23 23 23 24 22 18 14 18 23 26 26 25 25 24 25 25 25 22 20 21 17 8
4 4 4 4 5 5 5 5 6 4 4 2 1 1 2 4 4 7 7 7 7 7 8 8 7 8 7 8 9 9 8 9 10 12 14 10 12 18 20 20 20 21 23 24 24 24 22 22 23 26 25 25 25 25 24 25 23 19 21 19 9 6
3 3 3 4 5 7 6 7 7 4 4 3 2 2 4 5 5 6 6 6 7 8 7 7 7 7 8 7 8 8 9 9 9 11 11 13 14 11 10 11 16 19 22 23 25 25 24 24 24 24 25 25 25 26 25 23 14 18 19 14 7 6
3 4 4 5 6 6 6 8 7 4 4 3 3 4 5 4 5 5 9 14 11 7 7 7 7 8 7 7 8 8 9 9 9 9 10 10 12 13 14 13 10 11 15 17 18 22 25 25 24 24 24 25 25 25 26 21 10 10 8 8 6 7
4 4 4 4 5 6 7 9 6 4 4 3 4 5 5 5 5 6 6 6 8 7 7 7 7 7 7 8 9 8 9 9 9 10 9 9 10 11 12 13 11 10 10 20 20 21 22 24 25 25 25 23 23 23 24 12 9 8 7 7 7 6
Wind_Direction
30 33 24 28 24 23 20 16 13 17 18 17 12 12 8 9 1 5 2 2 358 356 353 352 353 354 353 350 349 348 351 351 347 345 341 338 338 335 335 334 332 332 331 332 333 334 334 333 334 334 333 334 331 333 330 329 329 326 325 325 326 325
28 30 27 21 20 15 16 10 13 12 19 16 10 9 3 8 2 3 1 358 354 350 348 349 348 348 349 349 347 348 351 349 345 341 341 340 336 335 335 333 332 331 328 328 331 332 334 335 335 334 332 330 332 329 328 327 328 329 329 328 329 326
20 23 18 22 17 17 15 2 11 2 14 21 9 8 356 11 356 359 359 351 347 346 343 345 345 343 346 343 344 346 349 345 341 340 334 332 335 335 334 333 332 331 328 327 329 331 333 334 334 333 329 333 330 328 324 323 329 332 333 332 327 327
15 24 6 22 18 8 18 353 3 357 3 25 9 5 359 7 355 359 356 351 345 343 342 342 341 339 341 340 337 348 348 343 339 334 332 333 331 332 331 330 329 329 327 328 329 329 329 329 331 331 332 331 329 325 324 326 339 341 333 329 324 324
20 21 8 15 18 7 11 354 357 355 355 21 11 3 356 13 351 355 353 345 343 340 340 340 339 343 340 339 338 352 348 341 335 330 331 329 328 328 328 327 327 325 325 325 326 328 328 328 327 327 329 328 327 322 325 339 343 334 325 324 322 323
12 20 4 15 11 3 4 357 349 352 355 16 6 1 355 7 352 354 349 343 339 336 337 340 340 344 339 338 341 354 344 338 331 329 328 326 324 324 323 324 322 322 323 325 326 327 326 326 323 324 325 325 324 324 331 335 329 323 321 320 320 320
14 21 2 10 8 353 360 350 349 353 2 6 359 359 356 2 352 353 348 341 337 337 340 339 344 343 339 339 348 348 341 335 331 330 330 327 325 324 322 318 318 317 320 323 326 326 326 325 325 324 323 321 320 326 328 324 320 320 318 317 316 317
7 23 1 7 7 351 352 349 346 357 6 4 358 357 359 359 355 352 345 339 336 337 339 341 345 343 340 342 349 343 338 332 331 330 327 325 324 323 321 318 318 317 315 317 319 321 320 321 323 322 321 319 323 327 323 320 317 318 317 316 316 317
5 21 353 4 2 351 349 347 342 359 7 359 356 357 4 352 355 348 343 337 337 336 338 342 345 341 340 344 344 340 334 331 329 328 326 326 324 321 319 318 316 316 316 318 320 320 318 318 318 318 316 318 324 322 317 317 318 317 316 314 314 313
358 1 357 357 359 352 347 350 349 3 9 353 348 3 2 353 354 344 339 337 337 337 338 341 340 342 341 343 341 335 332 330 329 327 324 325 324 322 321 321 320 318 319 321 319 318 318 317 316 315 314 319 320 316 315 316 317 317 315 314 313 316
1 350 2 357 356 354 347 350 357 360 4 346 349 10 356 351 349 339 336 337 337 336 339 340 343 345 344 341 336 335 332 331 328 326 325 324 321 322 322 319 318 321 320 317 315 316 316 314 313 313 319 318 315 315 315 315 312 310 308 310 308 306
1 353 2 360 356 349 351 353 359 356 353 347 2 3 349 350 343 334 335 336 333 335 341 344 346 341 340 334 335 333 330 328 327 326 326 324 323 322 320 319 322 320 317 318 319 315 314 314 312 312 314 315 314 314 313 310 309 308 307 307 305 303
0 359 358 357 351 344 357 356 351 349 346 354 2 351 346 346 331 333 331 332 332 340 345 345 340 339 336 333 333 329 329 326 325 325 324 324 326 324 321 323 321 319 319 317 315 316 314 312 310 312 313 313 313 313 309 309 309 307 305 304 305 308
351 357 355 348 343 352 355 350 345 347 344 0 352 343 340 333 328 329 330 329 338 346 346 342 337 336 332 332 330 328 325 322 322 323 323 324 325 323 322 321 319 319 318 317 317 314 313 310 313 315 315 315 314 314 312 308 306 304 303 301 301 301
352 347 353 340 339 355 341 342 347 339 352 357 340 342 333 327 328 327 331 334 349 345 339 337 334 331 328 329 329 326 323 323 322 322 324 324 319 318 319 318 320 318 317 318 316 316 315 313 314 315 316 317 317 317 316 309 305 303 298 297 298 297
356 341 339 339 340 350 332 344 344 346 360 347 340 334 320 324 322 325 329 337 342 337 335 333 330 327 326 328 328 323 322 321 321 321 320 316 317 318 318 317 315 315 314 316 316 314 313 311 311 316 318 319 318 317 315 304 303 300 300 301 298 295
345 329 340 334 341 332 339 341 359 0 350 340 331 318 315 316 318 321 324 335 334 334 333 328 326 325 328 329 324 322 322 321 320 321 319 317 318 318 317 315 313 311 310 311 313 313 311 308 314 319 320 319 319 315 318 327 327 325 325 318 312 312
307 325 323 328 324 318 334 343 0 0 329 321 314 311 317 314 317 319 318 333 332 334 330 326 323 327 329 326 322 321 321 320 321 320 318 315 313 311 308 307 307 308 309 310 310 311 309 310 316 319 319 319 318 322 342 338 333 333 328 326 326 323
279 333 336 315 300 313 333 6 353 334 316 315 309 314 314 315 315 316 327 333 336 333 328 324 325 329 327 322 322 320 320 322 320 319 320 316 314 311 310 310 311 310 309 310 311 312 310 309 312 316 317 318 319 331 340 336 333 331 324 318 315 311
33 342 318 293 297 304 24 3 320 314 315 311 313 314 312 313 314 322 333 331 333 331 325 326 329 328 323 320 320 319 317 317 313 313 317 315 312 311 309 309 307 307 307 308 308 309 310 308 310 315 316 316 319 338 340 338 332 327 327 320 318 316
326 269 272 290 309 298 0 305 312 319 310 309 312 312 310 315 322 327 331 330 328 326 324 327 330 326 321 320 317 317 316 316 316 312 311 309 309 308 308 307 307 306 306 306 305 307 308 308 311 314 316 317 320 333 342 338 334 331 328 324 319 316
259 280 286 281 268 270 280 285 330 309 305 311 312 312 313 320 326 323 326 325 324 322 326 329 327 322 321 319 314 315 314 314 312 311 312 311 308 306 307 307 304 303 304 306 307 308 310 312 312 314 317 318 322 330 339 338 330 326 321 319 315 315
203 221 250 260 265 286 301 294 301 292 301 309 311 307 318 321 324 325 324 324 322 323 325 325 322 322 319 315 313 313 313 313 312 313 313 310 309 306 305 305 305 302 302 304 305 306 311 311 313 314 316 319 323 328 334 332 328 323 320 318 316 315
206 244 272 280 308 308 299 320 319 297 301 301 295 306 315 322 325 323 319 318 321 321 319 315 317 318 313 311 313 312 311 310 308 308 308 308 306 306 305 305 305 304 304 305 309 308 309 312 313 313 314 318 324 328 330 330 323 321 321 319 313 313
209 248 266 290 304 305 303 353 306 286 286 283 292 308 314 322 319 315 316 319 316 312 308 308 312 313 311 309 308 305 306 308 308 306 306 305 305 303 303 305 307 307 306 307 308 308 312 313 312 312 313 320 326 327 327 324 322 322 322 317 314 314
216 243 279 300 295 292 300 301 281 280 279 280 299 314 323 321 314 314 311 307 305 301 300 303 305 304 305 301 300 300 302 305 304 301 304 307 306 306 307 307 308 308 307 308 309 312 313 312 312 311 317 323 325 325 324 322 321 321 320 318 315 312
217 259 280 275 281 292 304 295 280 279 281 284 320 325 324 315 314 310 304 305 304 301 299 299 299 303 299 294 298 303 303 301 301 303 304 306 305 306 306 306 308 307 306 307 308 311 313 314 311 312 317 321 322 321 319 318 318 321 322 319 313 312
189 247 270 279 280 299 296 285 279 277 276 303 336 335 322 312 307 302 301 300 296 292 295 298 299 293 288 292 294 292 294 298 303 299 299 300 297 299 300 303 305 303 304 303 306 310 313 313 311 311 316 322 319 312 311 315 319 320 320 319 312 310
200 252 269 276 279 280 283 287 291 282 293 308 325 323 308 301 300 299 298 296 294 295 297 295 296 297 296 295 295 295 296 297 292 290 293 296 295 295 296 297 300 301 300 299 303 305 307 308 306 309 314 317 304 294 303 314 313 317 316 310 301 310
216 246 256 268 276 283 282 285 280 280 283 289 310 303 302 294 297 298 298 298 298 295 293 291 296 299 299 299 301 300 297 289 288 290 290 295 297 297 296 296 295 294 296 297 298 298 300 302 300 304 313 308 304 308 312 314 315 314 312 313 311 311
231 244 256 267 275 270 273 272 275 276 275 274 287 291 286 283 290 295 293 293 291 287 291 292 293 297 300 299 294 283 283 293 293 288 283 274 273 280 288 293 291 293 293 291 295 304 305 304 302 304 310 311 315 316 318 321 317 315 315 317 321 324
227 251 259 264 271 281 278 274 271 272 270 281 279 271 274 293 299 295 291 290 287 289 293 295 297 298 295 294 296 298 290 278 288 290 291 293 292 293 293 293 293 296 300 301 298 300 303 305 304 310 314 315 313 315 318 317 316 318 318 322 327 336
239 247 262 271 280 274 268 269 272 277 275 263 259 214 286 307 299 291 286 288 283 289 295 298 297 293 291 292 294 294 297 302 290 288 292 292 297 299 296 297 297 299 301 303 306 307 304 304 308 313 314 314 315 318 320 319 318 319 323 328 330 356
250 257 264 273 271 267 270 273 274 267 263 256 230 161 282 289 286 288 285 281 283 291 293 290 290 296 297 295 293 293 299 301 306 301 287 293 300 301 301 301 301 302 305 307 309 310 310 311 312 313 315 317 319 320 320 319 319 323 333 329 343 344
238 246 259 271 274 276 273 274 277 278 274 259 199 220 273 271 270 277 281 279 284 285 289 291 290 290 289 294 297 300 299 301 304 306 310 301 295 299 302 303 304 306 309 311 311 311 311 312 313 315 317 319 321 322 322 320 323 336 334 334 345 333
230 242 260 270 271 274 277 276 276 275 271 261 251 254 256 260 258 264 271 277 280 285 286 285 284 284 286 286 292 294 299 297 296 299 300 307 315 310 295 290 301 307 309 310 312 314 314 314 316 317 319 321 323 325 324 323 341 344 334 336 330 319
240 252 256 262 267 268 270 271 275 269 260 255 259 263 266 264 266 266 272 276 280 277 277 279 281 285 287 292 294 295 295 293 293 292 297 304 306 308 311 314 307 301 306 310 312 312 314 317 318 319 321 322 324 327 327 334 345 334 330 331 327 319
240 246 254 262 267 268 269 270 271 269 264 269 264 255 258 260 266 269 271 272 276 278 276 278 282 286 290 292 290 286 285 288 290 292 292 292 293 297 302 302 303 305 308 308 306 308 312 315 318 319 320 321 324 326 333 335 327 321 319 320 316 313